TimeEST,TemperatureF,Dew PointF,Humidity,Sea Level PressureIn,VisibilityMPH,Wind Direction,Wind SpeedMPH,Gust SpeedMPH,PrecipitationIn,Events,Conditions,WindDirDegrees,DateUTC
12:53 AM,35.1,21.0,57,29.46,8.0,West,20.7,40.3,N/A,,Clear,280,2014-02-14 05:53:00
1:53 AM,35.1,19.0,52,29.48,10.0,West,13.8,21.9,N/A,,Clear,270,2014-02-14 06:53:00
2:53 AM,35.1,17.1,48,29.49,10.0,West,24.2,34.5,N/A,,Clear,280,2014-02-14 07:53:00
3:53 AM,34.0,14.0,44,29.51,10.0,West,16.1,25.3,N/A,,Clear,270,2014-02-14 08:53:00
4:53 AM,35.1,12.9,40,29.52,10.0,West,15.0,25.3,N/A,,Clear,280,2014-02-14 09:53:00
5:53 AM,37.0,16.0,42,29.52,10.0,WNW,17.3,-,N/A,,Mostly Cloudy,290,2014-02-14 10:53:00
6:53 AM,37.0,19.0,48,29.54,10.0,West,8.1,-,N/A,,Mostly Cloudy,260,2014-02-14 11:53:00
7:53 AM,37.9,19.9,48,29.57,10.0,WSW,12.7,20.7,N/A,,Overcast,250,2014-02-14 12:53:00
8:53 AM,37.9,19.9,48,29.56,10.0,WSW,15.0,20.7,N/A,,Mostly Cloudy,250,2014-02-14 13:53:00
9:53 AM,42.1,21.9,45,29.58,10.0,WSW,15.0,-,N/A,,Partly Cloudy,250,2014-02-14 14:53:00
10:53 AM,43.0,23.0,45,29.60,10.0,West,19.6,26.5,N/A,,Partly Cloudy,280,2014-02-14 15:53:00
11:53 AM,44.1,21.9,42,29.62,10.0,WNW,13.8,21.9,0.00,,Clear,290,2014-02-14 16:53:00
12:53 PM,44.1,21.0,40,29.61,10.0,West,13.8,23.0,N/A,,Clear,280,2014-02-14 17:53:00
1:53 PM,45.0,19.9,37,29.61,10.0,WNW,10.4,-,N/A,,Clear,300,2014-02-14 18:53:00
2:53 PM,45.0,19.9,37,29.62,10.0,WNW,10.4,-,N/A,,Clear,290,2014-02-14 19:53:00
3:53 PM,45.0,19.9,37,29.64,10.0,WNW,4.6,-,N/A,,Clear,290,2014-02-14 20:53:00
4:53 PM,46.0,19.0,34,29.66,10.0,West,5.8,-,N/A,,Clear,260,2014-02-14 21:53:00
5:53 PM,45.0,19.0,36,29.68,10.0,NW,4.6,-,N/A,,Overcast,320,2014-02-14 22:53:00
6:53 PM,42.1,21.0,43,29.70,10.0,NW,5.8,-,N/A,,Mostly Cloudy,320,2014-02-14 23:53:00
7:53 PM,39.9,21.0,47,29.71,10.0,ESE,5.8,-,N/A,,Overcast,110,2014-02-15 00:53:00
8:53 PM,37.9,26.1,62,29.71,10.0,Calm,Calm,-,N/A,,Overcast,0,2014-02-15 01:53:00
9:53 PM,39.9,23.0,51,29.71,10.0,North,5.8,-,N/A,,Overcast,10,2014-02-15 02:53:00
10:53 PM,39.9,21.9,49,29.72,10.0,East,3.5,-,N/A,,Overcast,80,2014-02-15 03:53:00
11:53 PM,39.0,24.1,55,29.72,10.0,NE,5.8,-,N/A,,Overcast,40,2014-02-15 04:53:00